SCP
0 0 0 0 0 0 -0 0 0 0 0 0 0 0 0 0 0 0 0 0 0 0 0 0 0 0 0 0 0 0 -0 -0 0 1 1 1 1 1 0 0 0 0 0 0
0 0 0 0 0 0 0 0 0 0 -0 0 0 0 0 0 0 -0 0 0 0 0 0 0 0 -0 -0 0 0 0 0 -0 0 1 1 1 1 1 0 0 0 0 0 -0
0 -0 0 -0 -0 0 -0 0 0 0 0 0 0 0 0 0 0 0 0 0 0 0 0 0 0 0 0 0 0 0 1 0 1 1 1 1 0 0 0 0 0 0 0 0
0 -0 0 0 0 0 0 0 0 0 0 0 -0 0 0 0 -0 0 0 0 0 0 0 0 0 0 0 0 0 1 2 1 1 0 1 0 0 0 0 0 0 0 0 0
0 -0 0 0 0 0 0 0 0 0 0 0 0 0 0 0 0 0 0 0 0 0 0 0 0 0 0 0 2 2 7 3 2 1 1 1 0 0 0 0 0 0 0 0
0 0 0 0 0 0 0 0 0 -0 -0 0 0 0 0 0 0 0 0 0 0 0 0 0 0 0 1 2 3 6 10 7 7 3 1 1 0 0 0 0 0 0 0 0
-0 -0 -0 0 0 0 0 0 0 0 0 0 0 0 0 0 0 0 0 0 0 0 0 0 0 1 6 2 0 0 0 0 1 3 1 0 0 0 0 0 0 0 0 0
0 -0 0 -0 0 0 0 0 0 0 0 0 0 0 0 -0 -0 -0 -0 0 0 0 0 1 1 2 2 0 0 0 0 0 0 2 1 0 0 0 0 0 0 0 0 0
0 0 0 0 -0 0 0 0 0 0 0 0 0 0 -0 0 0 0 0 0 0 0 0 1 2 2 2 0 0 0 0 0 0 1 1 0 0 0 0 0 0 0 0 0
0 0 0 0 -0 0 0 0 0 0 0 0 0 0 0 0 -0 0 0 0 0 0 0 0 1 2 1 0 0 0 0 0 1 1 0 0 0 0 0 0 0 0 0 0
0 0 0 0 -0 -0 0 0 0 0 0 0 0 0 -0 0 0 0 0 0 0 0 0 1 0 0 0 0 0 0 1 2 1 1 0 0 0 0 0 0 0 0 0 0
0 0 0 0 0 0 -0 0 0 0 0 0 0 0 -0 -0 0 0 0 0 0 0 0 0 2 0 0 0 0 0 1 1 1 1 0 0 0 0 0 0 0 0 0 0
0 0 0 0 0 0 0 -0 0 0 0 0 0 0 0 0 -0 -0 0 0 0 0 0 1 3 2 1 1 2 1 0 1 1 0 0 0 0 0 0 0 0 0 0 0
0 0 0 0 0 0 0 0 0 0 0 0 0 0 0 0 0 0 0 0 0 0 0 0 5 6 5 1 2 2 2 1 1 0 0 0 0 0 0 0 0 0 0 0
0 0 0 0 0 0 0 0 -0 -0 0 0 0 0 0 -0 0 0 0 0 0 0 0 0 1 6 5 5 2 2 1 0 0 1 1 1 1 1 0 0 0 0 0 0
0 0 0 0 0 0 0 0 -0 -0 0 0 0 -0 0 0 0 0 0 0 0 0 0 0 0 0 2 3 5 4 2 1 1 1 1 2 2 1 1 0 0 0 0 0
0 0 0 0 0 0 0 0 0 0 0 0 0 -0 -0 0 0 0 0 0 0 0 0 0 0 2 1 4 7 5 4 3 3 2 2 3 2 1 0 0 0 0 0 0
0 0 0 0 0 0 0 0 0 0 0 0 -0 0 0 0 0 0 0 0 0 0 1 1 1 0 0 2 3 3 4 4 5 5 4 4 2 1 0 0 0 0 0 0
0 0 0 0 0 0 0 0 0 0 0 -0 -0 -0 0 0 0 0 0 1 0 1 2 1 1 2 1 2 2 2 2 6 6 4 3 3 1 0 0 0 0 0 0 0
0 0 0 0 0 0 0 0 0 0 0 0 -0 -0 -0 -0 0 0 0 2 3 4 2 2 3 4 4 3 2 2 3 3 3 2 2 1 0 0 0 0 0 0 0 0
0 0 0 0 0 0 0 0 0 0 0 0 0 -0 -0 -0 0 0 0 1 3 4 3 2 3 4 3 3 3 4 4 3 2 1 0 0 0 0 0 0 0 0 0 0
0 0 0 0 0 0 0 0 0 0 0 0 0 0 0 -0 -0 0 0 0 0 1 5 5 4 3 2 2 2 3 3 2 1 0 0 0 0 0 0 0 0 0 0 0
0 0 0 0 0 0 0 -0 -0 -0 -0 -0 -0 -0 -0 -0 -0 -0 0 0 0 0 2 5 3 1 1 1 2 2 1 0 0 0 0 0 0 0 0 0 0 0 0 0
0 0 0 0 0 0 0 0 0 -0 -0 -0 -0 -0 -0 -0 -0 -0 0 0 0 0 -0 0 1 1 1 0 1 0 0 0 0 0 0 0 0 0 0 0 0 0 0 0
0 0 0 0 0 0 0 0 0 0 0 -0 -0 -0 -0 -0 0 0 0 0 0 0 -0 0 0 0 0 0 0 0 0 0 0 0 0 0 0 0 0 0 0 0 0 0
0 0 0 0 0 0 0 0 0 0 0 0 -0 0 -0 -0 -0 0 0 0 0 0 0 0 0 0 0 0 0 0 0 0 0 0 0 0 0 0 0 0 0 0 0 0
Wind_Speed_500mb
35 6 13 26 23 24 16 17 17 18 8 13 23 18 36 44 43 37 69 73 80 90 86 78 76 71 66 65 61 58 60 58 52 52 50 50 47 53 49 45 32 28 27 27
13 14 26 23 25 22 29 15 17 20 6 10 23 42 18 28 39 68 57 66 84 91 92 89 90 85 81 74 71 68 69 66 57 59 57 51 49 52 49 46 36 33 32 31
18 23 30 32 23 20 16 7 11 18 16 13 18 11 10 15 41 56 65 81 91 100 98 101 101 99 90 89 87 83 82 78 72 62 60 52 55 55 55 53 43 38 36 38
17 33 29 25 14 16 14 17 15 22 16 9 29 6 14 39 51 34 60 58 71 85 94 107 111 108 107 105 100 94 91 88 82 78 70 67 64 66 64 51 38 39 38 46
23 19 20 19 14 10 17 12 14 13 15 10 15 2 16 20 18 22 24 42 62 87 104 100 116 116 114 112 112 104 96 89 84 78 78 72 61 69 60 44 40 40 43 47
20 46 14 14 14 17 16 11 18 13 4 14 14 11 10 11 12 12 27 43 51 52 101 108 112 117 101 71 49 37 84 78 75 75 76 69 65 69 64 46 48 46 48 48
20 24 28 28 14 13 7 2 8 11 9 13 13 14 15 16 21 17 23 58 58 56 60 79 85 78 73 79 70 52 43 47 61 78 77 68 66 73 67 54 51 50 51 53
11 21 20 28 23 22 17 17 11 15 6 13 15 21 23 17 39 52 63 21 24 26 28 23 43 88 93 90 87 64 36 53 85 87 79 72 71 76 64 49 53 51 53 55
12 23 25 21 17 22 14 12 19 11 10 10 11 22 17 20 28 50 29 24 14 14 17 32 49 75 100 98 100 67 56 66 83 96 82 78 80 83 73 51 54 54 50 54
17 12 18 26 21 6 19 14 4 5 10 15 12 15 14 15 20 3 11 19 24 16 17 37 55 65 86 82 77 52 47 78 87 91 88 84 87 88 59 50 54 58 52 53
15 12 12 10 6 10 10 4 5 10 11 12 8 13 18 7 10 17 4 14 15 19 21 34 54 57 66 68 73 56 76 74 81 102 90 84 91 81 58 56 59 60 61 61
7 3 2 15 13 12 10 14 15 10 14 10 10 16 21 13 16 19 24 8 23 27 34 30 49 51 61 65 58 56 81 75 76 88 85 81 81 68 63 67 64 63 69 62
6 7 7 13 12 13 9 14 12 7 8 16 19 16 16 9 8 13 35 18 52 43 40 31 51 51 54 64 63 59 66 66 73 71 66 68 68 63 63 72 66 69 69 63
18 6 14 11 10 13 17 20 19 6 9 11 18 19 17 21 16 19 42 50 29 53 49 44 60 66 58 58 58 61 58 62 70 66 62 66 65 57 49 57 68 77 68 69
10 7 12 13 15 23 35 40 35 31 23 17 18 19 16 19 26 35 56 42 46 46 22 29 60 70 68 73 74 65 54 58 63 74 64 60 55 52 43 48 63 76 74 74
10 7 16 11 20 30 44 48 44 27 31 34 27 34 23 67 62 47 47 30 37 38 41 32 32 52 80 87 81 75 68 64 60 60 69 64 62 58 49 49 66 80 79 76
9 7 13 7 22 34 29 23 28 38 33 35 35 35 23 33 21 26 43 57 44 51 57 57 64 61 49 88 85 81 76 70 65 56 65 72 73 68 63 60 71 81 87 80
15 10 8 10 11 32 3 19 29 27 27 17 31 37 41 50 77 53 45 46 49 34 37 41 45 48 45 43 50 51 64 67 69 59 60 70 77 69 68 71 75 82 85 84
27 13 9 9 15 37 31 33 33 40 50 29 22 37 63 84 63 39 12 17 17 33 42 50 53 47 47 45 42 36 31 69 68 58 58 61 70 68 73 80 83 81 86 89
12 23 19 9 20 33 8 26 51 23 29 33 32 29 45 60 23 16 123 16 29 43 51 54 49 50 46 41 30 22 19 45 53 52 51 51 56 69 77 81 90 89 85 88
13 10 12 18 18 20 29 33 36 18 18 36 36 31 39 20 28 67 86 26 45 56 55 52 49 48 41 33 29 25 30 29 37 36 39 45 54 65 79 84 89 82 84 82
7 7 7 8 11 15 45 20 10 20 43 35 38 37 40 50 69 75 76 56 52 26 57 50 46 40 31 26 27 33 30 27 31 35 40 48 57 67 76 79 77 82 82 77
7 8 6 7 10 49 22 2 8 12 19 29 38 48 38 55 58 72 76 62 52 109 52 53 43 37 29 25 26 28 23 28 37 44 49 55 56 57 48 69 79 80 74 76
11 32 8 19 3 41 60 61 18 32 36 39 41 43 46 39 45 46 71 62 40 51 66 36 36 27 23 21 23 24 32 37 45 50 56 59 56 51 51 62 78 80 77 78
22 26 15 31 45 48 43 47 60 62 49 48 49 48 42 42 48 39 47 52 47 77 110 12 17 15 2 3 9 19 32 39 46 50 53 55 50 46 54 68 79 73 71 72
37 30 21 29 50 42 50 62 69 71 71 60 41 48 53 54 49 53 58 75 66 75 97 46 13 14 11 16 17 20 27 33 39 46 51 53 52 58 68 74 73 66 63 73
Wind_Direction_500mb
246 191 238 241 237 235 254 264 272 277 287 113 148 173 263 220 201 184 194 190 193 197 198 195 192 195 198 198 199 205 206 212 211 209 196 199 208 216 226 233 243 235 214 210
282 226 241 249 259 247 254 274 310 307 197 80 180 206 232 177 202 208 200 198 198 199 198 196 194 196 198 202 204 207 209 211 213 213 206 208 222 228 235 239 233 229 221 207
210 244 232 250 259 279 286 248 296 274 298 237 139 295 211 293 227 225 219 216 201 200 197 197 197 195 197 203 208 209 210 210 213 217 206 211 222 232 238 232 226 215 213 197
243 257 260 267 245 243 279 281 249 271 299 188 235 208 311 208 221 238 231 220 204 199 203 201 200 196 199 207 208 210 212 210 214 219 220 226 223 229 232 228 221 215 204 197
254 261 270 277 251 307 270 327 307 302 303 305 281 84 223 216 224 233 242 235 227 211 210 198 201 201 204 208 209 206 207 207 210 221 228 228 234 239 237 224 219 211 203 203
258 282 270 262 280 242 269 321 328 326 307 284 265 194 247 242 217 242 232 247 245 247 206 205 210 206 199 193 174 194 192 201 213 223 229 231 236 240 235 227 219 209 205 206
274 268 271 262 280 306 357 39 323 317 322 257 274 306 235 260 249 218 233 244 252 252 224 207 197 185 180 171 168 162 188 212 239 236 235 234 236 237 232 233 219 209 210 207
252 286 247 247 212 200 210 177 172 239 263 282 313 269 274 259 277 270 258 237 123 123 111 116 161 181 185 185 188 182 243 240 228 233 239 238 234 231 225 229 219 221 217 210
225 256 276 284 293 186 235 252 216 206 255 281 265 287 295 285 282 259 177 146 132 114 104 144 160 177 184 191 199 215 254 219 220 230 237 239 230 225 222 217 219 224 220 214
225 261 241 275 318 257 161 201 307 337 209 258 269 269 264 316 311 109 106 132 143 147 123 149 162 175 185 196 211 232 215 211 221 230 236 234 222 223 221 215 221 215 221 211
226 179 260 251 263 268 318 262 246 162 162 211 244 261 224 228 11 342 213 196 186 181 188 170 164 177 189 197 203 210 205 214 218 224 232 225 218 217 221 223 218 213 210 214
349 300 254 238 252 282 296 260 185 148 276 232 202 254 286 284 40 357 309 311 282 224 209 214 182 176 181 186 194 204 207 219 220 226 227 223 218 220 224 221 214 211 208 216
303 334 354 331 338 331 280 272 247 209 155 218 249 265 279 294 44 304 300 318 288 220 196 192 181 184 184 188 192 201 207 212 220 226 231 224 225 221 218 216 211 211 212 214
337 194 175 202 246 302 289 289 293 266 239 226 238 261 270 276 268 258 266 276 258 282 206 203 188 186 190 192 201 204 209 209 213 214 217 221 225 223 220 215 211 211 213 210
40 301 308 263 260 284 286 285 288 290 283 275 279 262 261 256 262 261 273 276 262 239 230 224 200 191 197 199 202 205 214 209 204 207 212 221 228 231 220 210 207 209 213 211
359 300 340 316 296 269 269 278 285 283 292 293 292 282 249 258 262 259 252 259 242 214 234 264 188 194 218 212 205 204 213 213 210 208 208 218 229 228 222 215 202 204 209 209
286 12 0 278 350 322 285 272 258 274 273 280 284 299 324 307 287 257 262 261 262 231 240 229 226 216 220 207 208 204 212 215 211 213 211 212 222 226 222 218 207 211 212 211
246 274 212 267 321 263 203 346 335 324 306 2 352 348 344 333 321 295 281 266 260 267 219 215 174 147 142 164 195 207 215 218 214 213 217 215 221 224 218 217 214 211 212 209
225 225 253 233 234 278 284 297 302 301 293 57 3 359 352 340 330 320 303 271 262 213 183 172 168 159 150 149 155 176 195 215 210 214 218 225 227 233 228 218 213 212 209 205
242 224 226 234 260 271 24 358 341 340 282 33 23 12 5 359 3 316 327 212 173 162 168 172 165 164 172 173 187 188 193 205 206 208 216 224 232 237 226 220 210 209 210 204
295 301 230 244 254 275 14 8 354 260 304 344 3 3 10 11 329 309 345 324 196 176 167 165 168 161 160 164 174 181 195 199 201 215 224 229 230 225 219 213 208 210 204 196
313 314 319 331 262 261 28 28 354 319 325 355 348 336 342 357 355 346 342 324 1 248 162 150 147 144 147 155 161 167 174 178 201 217 223 227 225 213 212 211 207 206 199 186
312 73 282 272 275 312 354 71 275 345 337 337 339 333 325 339 357 359 351 349 331 336 138 137 142 143 138 143 148 151 175 206 211 215 220 221 221 215 221 216 208 199 192 179
301 336 294 326 356 317 314 312 273 317 306 315 316 324 332 314 325 352 355 3 352 310 313 106 112 123 134 152 149 163 194 217 224 221 214 214 214 206 211 213 214 200 187 182
273 296 288 285 288 300 301 312 317 319 312 315 305 306 318 309 297 311 318 331 12 321 315 36 88 110 146 243 208 215 215 224 222 220 214 210 208 213 212 211 205 199 195 196
251 259 264 270 285 299 307 315 315 308 307 308 290 291 305 301 296 283 275 284 299 301 306 333 321 319 345 314 283 269 244 232 226 217 207 210 207 210 201 197 189 192 196 187
Wind_Speed_850mb
35 6 13 26 23 24 16 17 17 18 8 13 23 18 36 44 43 37 69 73 80 90 86 78 76 71 66 65 61 58 60 58 52 52 50 50 47 53 49 45 32 28 27 27
13 14 26 23 25 22 29 15 17 20 6 10 23 42 18 28 39 68 57 66 84 91 92 89 90 85 81 74 71 68 69 66 57 59 57 51 49 52 49 46 36 33 32 31
18 23 30 32 23 20 16 7 11 18 16 13 18 11 10 15 41 56 65 81 91 100 98 101 101 99 90 89 87 83 82 78 72 62 60 52 55 55 55 53 43 38 36 38
17 33 29 25 14 16 14 17 15 22 16 9 29 6 14 39 51 34 60 58 71 85 94 107 111 108 107 105 100 94 91 88 82 78 70 67 64 66 64 51 38 39 38 46
23 19 20 19 14 10 17 12 14 13 15 10 15 2 16 20 18 22 24 42 62 87 104 100 116 116 114 112 112 104 96 89 84 78 78 72 61 69 60 44 40 40 43 47
20 46 14 14 14 17 16 11 18 13 4 14 14 11 10 11 12 12 27 43 51 52 101 108 112 117 101 71 49 37 84 78 75 75 76 69 65 69 64 46 48 46 48 48
20 24 28 28 14 13 7 2 8 11 9 13 13 14 15 16 21 17 23 58 58 56 60 79 85 78 73 79 70 52 43 47 61 78 77 68 66 73 67 54 51 50 51 53
11 21 20 28 23 22 17 17 11 15 6 13 15 21 23 17 39 52 63 21 24 26 28 23 43 88 93 90 87 64 36 53 85 87 79 72 71 76 64 49 53 51 53 55
12 23 25 21 17 22 14 12 19 11 10 10 11 22 17 20 28 50 29 24 14 14 17 32 49 75 100 98 100 67 56 66 83 96 82 78 80 83 73 51 54 54 50 54
17 12 18 26 21 6 19 14 4 5 10 15 12 15 14 15 20 3 11 19 24 16 17 37 55 65 86 82 77 52 47 78 87 91 88 84 87 88 59 50 54 58 52 53
15 12 12 10 6 10 10 4 5 10 11 12 8 13 18 7 10 17 4 14 15 19 21 34 54 57 66 68 73 56 76 74 81 102 90 84 91 81 58 56 59 60 61 61
7 3 2 15 13 12 10 14 15 10 14 10 10 16 21 13 16 19 24 8 23 27 34 30 49 51 61 65 58 56 81 75 76 88 85 81 81 68 63 67 64 63 69 62
6 7 7 13 12 13 9 14 12 7 8 16 19 16 16 9 8 13 35 18 52 43 40 31 51 51 54 64 63 59 66 66 73 71 66 68 68 63 63 72 66 69 69 63
18 6 14 11 10 13 17 20 19 6 9 11 18 19 17 21 16 19 42 50 29 53 49 44 60 66 58 58 58 61 58 62 70 66 62 66 65 57 49 57 68 77 68 69
10 7 12 13 15 23 35 40 35 31 23 17 18 19 16 19 26 35 56 42 46 46 22 29 60 70 68 73 74 65 54 58 63 74 64 60 55 52 43 48 63 76 74 74
10 7 16 11 20 30 44 48 44 27 31 34 27 34 23 67 62 47 47 30 37 38 41 32 32 52 80 87 81 75 68 64 60 60 69 64 62 58 49 49 66 80 79 76
9 7 13 7 22 34 29 23 28 38 33 35 35 35 23 33 21 26 43 57 44 51 57 57 64 61 49 88 85 81 76 70 65 56 65 72 73 68 63 60 71 81 87 80
15 10 8 10 11 32 3 19 29 27 27 17 31 37 41 50 77 53 45 46 49 34 37 41 45 48 45 43 50 51 64 67 69 59 60 70 77 69 68 71 75 82 85 84
27 13 9 9 15 37 31 33 33 40 50 29 22 37 63 84 63 39 12 17 17 33 42 50 53 47 47 45 42 36 31 69 68 58 58 61 70 68 73 80 83 81 86 89
12 23 19 9 20 33 8 26 51 23 29 33 32 29 45 60 23 16 123 16 29 43 51 54 49 50 46 41 30 22 19 45 53 52 51 51 56 69 77 81 90 89 85 88
13 10 12 18 18 20 29 33 36 18 18 36 36 31 39 20 28 67 86 26 45 56 55 52 49 48 41 33 29 25 30 29 37 36 39 45 54 65 79 84 89 82 84 82
7 7 7 8 11 15 45 20 10 20 43 35 38 37 40 50 69 75 76 56 52 26 57 50 46 40 31 26 27 33 30 27 31 35 40 48 57 67 76 79 77 82 82 77
7 8 6 7 10 49 22 2 8 12 19 29 38 48 38 55 58 72 76 62 52 109 52 53 43 37 29 25 26 28 23 28 37 44 49 55 56 57 48 69 79 80 74 76
11 32 8 19 3 41 60 61 18 32 36 39 41 43 46 39 45 46 71 62 40 51 66 36 36 27 23 21 23 24 32 37 45 50 56 59 56 51 51 62 78 80 77 78
22 26 15 31 45 48 43 47 60 62 49 48 49 48 42 42 48 39 47 52 47 77 110 12 17 15 2 3 9 19 32 39 46 50 53 55 50 46 54 68 79 73 71 72
37 30 21 29 50 42 50 62 69 71 71 60 41 48 53 54 49 53 58 75 66 75 97 46 13 14 11 16 17 20 27 33 39 46 51 53 52 58 68 74 73 66 63 73
Wind_Direction_850mb
246 191 238 241 237 235 254 264 272 277 287 113 148 173 263 220 201 184 194 190 193 197 198 195 192 195 198 198 199 205 206 212 211 209 196 199 208 216 226 233 243 235 214 210
282 226 241 249 259 247 254 274 310 307 197 80 180 206 232 177 202 208 200 198 198 199 198 196 194 196 198 202 204 207 209 211 213 213 206 208 222 228 235 239 233 229 221 207
210 244 232 250 259 279 286 248 296 274 298 237 139 295 211 293 227 225 219 216 201 200 197 197 197 195 197 203 208 209 210 210 213 217 206 211 222 232 238 232 226 215 213 197
243 257 260 267 245 243 279 281 249 271 299 188 235 208 311 208 221 238 231 220 204 199 203 201 200 196 199 207 208 210 212 210 214 219 220 226 223 229 232 228 221 215 204 197
254 261 270 277 251 307 270 327 307 302 303 305 281 84 223 216 224 233 242 235 227 211 210 198 201 201 204 208 209 206 207 207 210 221 228 228 234 239 237 224 219 211 203 203
258 282 270 262 280 242 269 321 328 326 307 284 265 194 247 242 217 242 232 247 245 247 206 205 210 206 199 193 174 194 192 201 213 223 229 231 236 240 235 227 219 209 205 206
274 268 271 262 280 306 357 39 323 317 322 257 274 306 235 260 249 218 233 244 252 252 224 207 197 185 180 171 168 162 188 212 239 236 235 234 236 237 232 233 219 209 210 207
252 286 247 247 212 200 210 177 172 239 263 282 313 269 274 259 277 270 258 237 123 123 111 116 161 181 185 185 188 182 243 240 228 233 239 238 234 231 225 229 219 221 217 210
225 256 276 284 293 186 235 252 216 206 255 281 265 287 295 285 282 259 177 146 132 114 104 144 160 177 184 191 199 215 254 219 220 230 237 239 230 225 222 217 219 224 220 214
225 261 241 275 318 257 161 201 307 337 209 258 269 269 264 316 311 109 106 132 143 147 123 149 162 175 185 196 211 232 215 211 221 230 236 234 222 223 221 215 221 215 221 211
226 179 260 251 263 268 318 262 246 162 162 211 244 261 224 228 11 342 213 196 186 181 188 170 164 177 189 197 203 210 205 214 218 224 232 225 218 217 221 223 218 213 210 214
349 300 254 238 252 282 296 260 185 148 276 232 202 254 286 284 40 357 309 311 282 224 209 214 182 176 181 186 194 204 207 219 220 226 227 223 218 220 224 221 214 211 208 216
303 334 354 331 338 331 280 272 247 209 155 218 249 265 279 294 44 304 300 318 288 220 196 192 181 184 184 188 192 201 207 212 220 226 231 224 225 221 218 216 211 211 212 214
337 194 175 202 246 302 289 289 293 266 239 226 238 261 270 276 268 258 266 276 258 282 206 203 188 186 190 192 201 204 209 209 213 214 217 221 225 223 220 215 211 211 213 210
40 301 308 263 260 284 286 285 288 290 283 275 279 262 261 256 262 261 273 276 262 239 230 224 200 191 197 199 202 205 214 209 204 207 212 221 228 231 220 210 207 209 213 211
359 300 340 316 296 269 269 278 285 283 292 293 292 282 249 258 262 259 252 259 242 214 234 264 188 194 218 212 205 204 213 213 210 208 208 218 229 228 222 215 202 204 209 209
286 12 0 278 350 322 285 272 258 274 273 280 284 299 324 307 287 257 262 261 262 231 240 229 226 216 220 207 208 204 212 215 211 213 211 212 222 226 222 218 207 211 212 211
246 274 212 267 321 263 203 346 335 324 306 2 352 348 344 333 321 295 281 266 260 267 219 215 174 147 142 164 195 207 215 218 214 213 217 215 221 224 218 217 214 211 212 209
225 225 253 233 234 278 284 297 302 301 293 57 3 359 352 340 330 320 303 271 262 213 183 172 168 159 150 149 155 176 195 215 210 214 218 225 227 233 228 218 213 212 209 205
242 224 226 234 260 271 24 358 341 340 282 33 23 12 5 359 3 316 327 212 173 162 168 172 165 164 172 173 187 188 193 205 206 208 216 224 232 237 226 220 210 209 210 204
295 301 230 244 254 275 14 8 354 260 304 344 3 3 10 11 329 309 345 324 196 176 167 165 168 161 160 164 174 181 195 199 201 215 224 229 230 225 219 213 208 210 204 196
313 314 319 331 262 261 28 28 354 319 325 355 348 336 342 357 355 346 342 324 1 248 162 150 147 144 147 155 161 167 174 178 201 217 223 227 225 213 212 211 207 206 199 186
312 73 282 272 275 312 354 71 275 345 337 337 339 333 325 339 357 359 351 349 331 336 138 137 142 143 138 143 148 151 175 206 211 215 220 221 221 215 221 216 208 199 192 179
301 336 294 326 356 317 314 312 273 317 306 315 316 324 332 314 325 352 355 3 352 310 313 106 112 123 134 152 149 163 194 217 224 221 214 214 214 206 211 213 214 200 187 182
273 296 288 285 288 300 301 312 317 319 312 315 305 306 318 309 297 311 318 331 12 321 315 36 88 110 146 243 208 215 215 224 222 220 214 210 208 213 212 211 205 199 195 196
251 259 264 270 285 299 307 315 315 308 307 308 290 291 305 301 296 283 275 284 299 301 306 333 321 319 345 314 283 269 244 232 226 217 207 210 207 210 201 197 189 192 196 187